Location: Concepci�n
(32.5333°N, 117.1167°W)
Time: 12:07:18
(UTC+00:00)

Okean 1-7 Rocket - Pass Details

Date: 08 May 2021
Orbit: 615 x 650 km, 82.5° (Epoch: 16 June)

Event Time Altitude Azimuth Distance (km) Brightness Sun altitude
Rises 12:15:36 0° 185° (S) 2,921 6.7 -8.4°
Reaches altitude 10° 12:17:49 10° 185° (S) 2,022 5.9 -8.0°
Maximum altitude 12:22:19 89° 95° (E) 649 3.7 -7.2°
Drops below altitude 10° 12:26:53 10° 7° (N) 2,052 6.7 -6.3°
Sets 12:29:09 0° 7° (N) 2,968 7.5 -5.9°
